User: anonymous   Login
Location: Izdebno
(52.6670°N, 16.2170°E)
Time: 23:08:36
(UTC+02:00)
Language:

A-11 Canister half - Orbit

View from above orbital plane
View from above orbital plane
View from above satellite
View from above satellite

Ground track
Ground track

The orbit data is extracted from the following two-line orbital elements,

1 00051U 60009C   24170.60015202 -.00000110  00000-0 -24840-3 0  9996
2 00051  47.2104 143.7854 0106690 191.1622 168.6794 12.18328138842341
Epoch (UTC): 18 June 2024 14:24:13
Eccentricity: 0.0106690
inclination: 47.2104°
perigee height: 1515 km
apogee height: 1685 km
right ascension of ascending node: 143.7854°
argument of perigee: 191.1622°
revolutions per day: 12.18328138
mean anomaly at epoch: 168.6794°
orbit number at epoch: 84234

The dashed part of the orbit path shows where the satellite is in the earth's shadow,  

DLR